GFSSGP_500_rhum_015.txt.gz
RH
11 14 14 16 16 12 23 78 78 88 21 9 25 62 78 56 80 96 88 92 97 93 74 68 75 88 93 86 56 42 28 13 5 6 4 6 7 8 9 10 11 10 9 9 10 10 8 6 6
15 15 17 16 18 68 69 82 85 36 24 90 26 62 79 78 78 69 84 92 92 82 71 87 96 96 90 69 68 52 26 10 7 7 4 6 7 7 7 8 9 9 9 9 10 8 8 8 6
23 18 20 24 30 76 75 94 81 20 12 22 31 53 76 76 72 72 72 86 83 89 90 96 97 96 96 85 75 44 28 8 6 5 5 6 6 6 7 8 8 8 9 10 10 9 11 22 16
30 37 28 27 82 88 80 99 54 39 21 19 47 58 77 84 76 70 69 88 98 96 96 98 96 95 94 93 70 42 26 6 7 6 7 7 7 6 7 8 8 9 10 9 11 24 41 34 25
53 48 43 41 85 95 82 70 96 57 87 34 58 70 80 97 90 88 90 79 98 97 96 97 93 97 96 94 71 54 10 8 8 8 7 7 6 6 7 8 8 9 10 11 21 36 44 39 30
73 48 58 84 90 83 81 82 89 50 80 66 84 82 74 86 91 96 84 98 97 96 96 95 97 95 96 96 93 16 9 10 8 7 6 5 6 7 7 7 8 10 11 16 21 36 47 44 30
65 76 70 94 99 99 75 75 95 82 90 92 95 95 84 80 77 87 89 96 95 95 95 94 96 93 95 91 37 9 9 8 6 6 5 6 6 6 6 7 10 12 16 20 45 50 42 29 22
76 72 83 86 80 70 89 60 56 59 58 88 91 84 89 82 74 91 96 96 94 96 90 96 96 83 44 26 9 7 6 6 5 5 5 5 6 8 10 11 12 16 18 24 53 58 38 25 19
84 57 79 90 72 60 51 57 69 68 57 76 96 83 87 78 76 75 87 95 95 93 94 96 95 89 66 32 15 7 5 5 7 9 13 15 14 13 12 16 17 18 22 26 30 39 30 27 22
82 56 84 73 76 93 55 70 68 86 72 92 86 64 28 27 29 52 51 65 67 57 54 57 23 16 19 16 8 11 17 16 16 20 18 14 16 22 23 34 41 46 37 36 40 40 40 40 28
74 72 98 85 97 61 60 64 82 91 99 98 99 67 37 62 48 35 56 28 18 20 15 8 8 8 10 15 17 16 18 20 20 18 19 18 36 46 66 91 80 85 88 72 61 50 37 34 33
71 55 67 70 63 60 70 70 100 94 95 89 27 26 44 17 16 12 9 7 8 7 8 8 9 15 16 17 22 19 20 18 21 47 63 67 65 91 92 95 93 93 90 86 68 63 55 53 47
52 59 52 82 71 93 82 92 96 61 13 15 13 17 16 13 14 13 10 9 11 12 15 17 17 20 21 26 36 56 74 71 57 99 98 99 89 93 97 99 98 93 86 86 74 62 66 64 70
98 79 91 90 92 95 87 90 68 28 32 13 13 17 18 20 21 17 15 17 21 23 25 22 26 30 39 56 69 89 96 97 95 98 97 98 94 91 85 94 96 86 69 76 51 83 89 90 70
90 99 98 96 95 81 96 40 31 16 16 15 15 18 20 19 20 20 21 26 28 28 27 29 28 34 49 75 86 100 94 98 98 98 94 81 80 78 90 71 54 67 88 95 97 79 59 59 63
93 98 100 90 94 65 84 73 10 10 15 12 15 20 21 19 18 18 27 31 31 33 38 45 53 62 71 71 65 84 88 63 43 60 46 55 56 55 62 70 73 79 72 67 64 59 51 49 45
95 95 96 79 55 67 76 73 12 26 20 22 24 22 23 22 22 22 28 29 42 51 63 70 68 73 78 78 67 42 42 37 52 54 59 53 49 50 50 54 51 47 43 39 40 42 42 42 40
97 88 84 87 37 45 75 68 16 32 38 47 47 40 28 24 22 23 28 40 60 70 69 69 57 56 80 80 58 55 40 36 46 56 45 37 48 51 50 47 44 40 35 37 44 44 49 50 47
93 82 75 78 38 50 82 46 16 33 59 57 54 52 34 30 29 30 38 50 55 50 43 41 52 82 82 65 64 45 28 19 19 24 34 40 36 35 36 37 40 49 65 63 62 61 66 66 58
88 86 90 59 28 43 42 91 34 51 59 40 45 34 27 34 37 37 46 41 41 52 43 63 65 73 60 65 36 24 18 18 19 22 24 25 26 30 36 55 64 63 68 68 66 64 66 62 56
92 78 99 89 62 36 96 99 35 35 34 28 30 37 32 27 30 40 39 49 68 60 51 42 42 51 45 27 21 18 18 19 20 19 18 21 26 27 32 33 41 50 54 57 60 60 58 50 43
98 62 90 68 94 82 44 79 94 26 18 24 31 31 31 32 36 38 43 52 54 34 26 21 23 24 20 19 19 18 18 18 18 19 19 19 19 26 25 28 40 49 56 61 61 54 44 46 43
98 85 59 54 72 99 83 64 90 59 27 27 43 42 35 32 37 35 50 44 29 20 19 18 18 18 19 19 19 19 22 26 26 25 26 26 26 26 25 28 43 52 59 59 53 55 60 47 42
45 56 40 30 95 88 78 97 79 92 62 31 31 28 27 29 29 44 39 26 19 17 18 20 21 21 21 22 23 28 32 33 34 34 38 36 33 34 29 37 54 59 60 61 58 53 49 47 43
39 78 96 85 95 74 95 71 48 99 75 44 22 20 18 19 36 29 19 16 18 19 23 27 27 27 27 28 30 32 34 35 39 72 54 45 39 34 30 47 64 67 69 63 60 58 56 44 32
44 100 92 95 86 75 83 63 66 55 31 21 17 23 28 28 18 16 18 20 20 26 29 29 28 29 32 34 36 37 39 41 46 79 46 43 38 30 33 60 72 72 69 66 64 53 41 30 22
100 51 54 61 31 25 30 65 76 24 21 20 16 16 15 16 19 20 24 25 27 27 25 23 24 27 31 35 37 41 43 45 48 49 48 42 36 32 50 78 78 75 70 56 46 37 26 24 19
31 40 27 26 26 24 77 79 73 28 16 15 16 17 18 17 15 17 23 23 21 20 19 20 21 25 28 30 35 38 44 49 60 55 50 43 36 44 82 89 81 66 55 48 36 27 24 16 5
26 23 22 28 41 29 22 62 45 20 19 18 16 16 14 14 15 17 18 19 19 19 20 22 24 25 26 25 25 26 32 43 57 54 48 44 49 89 94 85 72 62 58 43 24 15 16 5 6
14 18 20 23 25 21 21 24 19 18 16 16 16 16 17 17 18 18 19 20 20 21 22 22 24 25 27 28 29 32 37 46 55 51 51 59 91 92 83 72 66 58 50 30 22 24 16 7 10

GFSSGP_500_rhum_018.txt.gz
RH
11 12 18 16 20 10 11 13 44 88 56 36 20 28 32 62 45 82 61 90 86 90 89 80 98 82 73 77 95 89 68 44 31 14 5 4 8 7 9 10 11 10 9 8 8 8 7 7 12
13 15 19 17 13 16 14 66 83 76 41 19 21 25 36 27 27 42 45 48 95 81 96 98 98 90 84 89 94 86 61 48 37 9 6 4 7 7 8 8 8 8 8 8 9 9 10 17 24
16 21 15 19 11 12 46 89 91 53 40 25 27 20 49 42 19 49 62 57 73 87 99 98 94 88 99 94 96 94 80 60 23 7 7 4 6 7 6 7 7 8 8 8 9 10 13 36 36
29 49 28 17 14 43 66 92 85 41 35 14 17 25 30 22 19 25 53 66 78 95 92 95 98 94 97 96 96 95 94 45 12 7 6 5 7 6 6 6 8 8 8 9 9 9 19 28 40
43 56 42 27 26 71 89 82 32 36 27 86 77 62 24 21 33 37 65 87 86 87 99 98 97 98 96 96 96 96 93 38 7 8 7 7 7 6 6 7 8 7 7 8 11 15 18 24 28
49 63 53 42 67 91 99 68 36 32 65 92 88 34 50 49 34 49 74 91 80 97 98 96 97 96 96 96 96 94 68 9 9 8 7 7 7 6 6 7 6 7 9 9 11 19 25 47 40
37 66 54 60 93 96 90 68 36 43 87 88 52 66 98 78 63 66 87 80 89 98 97 96 96 97 96 97 94 67 19 9 9 10 8 6 6 6 6 9 10 11 12 13 14 17 20 34 46
39 76 39 75 90 98 76 93 98 40 68 60 49 66 95 90 68 84 87 98 98 98 97 96 96 96 96 95 70 36 26 19 7 6 5 5 6 9 12 10 11 13 15 20 18 19 22 21 28
62 60 47 71 88 97 65 98 70 40 24 40 55 75 77 70 70 90 99 98 94 96 96 95 96 94 92 82 47 13 7 6 7 7 8 16 13 10 11 12 16 30 59 52 57 60 49 55 47
67 75 67 93 96 88 95 88 68 67 52 81 77 96 85 79 89 94 97 98 96 95 91 94 86 67 57 30 12 8 7 8 14 14 13 13 15 17 36 46 57 86 84 76 90 72 69 61 59
72 62 99 95 84 77 89 82 73 72 81 86 95 90 83 90 76 74 97 96 80 18 6 5 12 19 10 9 11 12 14 18 18 18 20 60 90 87 84 74 70 86 85 85 74 71 62 57 62
86 78 99 66 97 92 89 72 95 90 68 86 100 95 46 35 37 23 8 18 4 6 6 7 7 10 12 15 18 28 55 80 90 89 68 89 87 90 76 63 61 64 74 94 69 64 54 49 54
92 75 86 91 92 96 83 92 97 84 79 94 87 36 25 31 14 6 5 6 9 11 13 14 16 17 22 34 60 67 84 94 98 96 95 90 82 74 53 56 68 61 73 77 48 34 48 46 46
68 94 80 45 70 98 91 97 82 88 76 68 15 13 10 7 8 8 10 13 15 21 24 24 24 26 34 48 72 80 74 92 98 79 85 87 77 55 45 32 36 31 27 27 31 33 45 59 81
79 58 46 57 97 98 97 60 55 60 54 18 12 14 13 13 14 12 10 14 16 18 22 26 32 43 56 71 72 64 74 89 51 44 50 46 54 46 19 23 27 29 34 35 40 42 39 37 36
81 92 80 96 94 65 96 82 20 20 18 22 15 17 19 18 17 17 17 18 20 20 28 46 46 59 68 71 73 69 68 50 48 32 21 26 23 18 19 20 22 23 27 30 36 39 40 38 38
96 93 90 68 78 70 85 83 22 16 70 36 16 34 17 20 17 16 16 17 16 24 34 46 58 79 70 68 75 74 65 57 39 16 16 17 17 17 17 20 24 28 31 34 33 36 38 44 45
92 97 94 91 40 86 72 76 36 18 18 78 11 17 17 16 18 17 17 20 21 19 32 57 56 47 55 60 63 66 51 34 16 16 16 16 17 18 19 20 22 24 26 23 26 33 41 49 60
95 95 97 96 74 81 73 91 39 6 17 26 13 87 16 13 21 24 26 27 34 28 33 26 27 82 69 54 54 55 29 16 16 16 18 19 21 20 20 21 22 22 23 23 23 32 39 45 55
100 95 93 88 55 40 79 98 20 10 15 20 18 13 20 16 24 21 30 32 33 28 38 53 49 44 33 30 34 19 17 16 17 20 23 25 26 27 29 30 31 28 26 26 25 33 42 48 54
98 97 89 97 26 25 86 91 66 27 18 24 18 20 18 16 22 24 25 28 33 39 53 42 31 22 20 21 19 18 17 18 22 25 28 30 32 33 38 38 40 36 31 26 25 43 53 51 58
93 75 98 98 84 71 86 82 96 98 42 20 18 18 18 18 16 24 28 28 34 48 47 29 19 18 18 18 19 20 20 22 25 28 30 31 33 35 40 43 41 34 32 27 30 53 68 69 63
94 93 78 100 92 89 98 81 76 70 78 26 24 26 22 17 14 17 21 23 39 40 23 17 17 19 21 21 22 23 24 25 28 30 34 37 40 42 46 53 43 38 36 30 42 70 76 70 58
56 33 26 56 76 91 92 95 96 91 97 98 72 68 37 24 17 16 16 20 33 20 16 17 21 26 27 26 28 29 30 30 33 36 39 43 45 50 97 69 44 44 38 41 66 77 73 56 40
30 34 76 93 97 54 94 99 99 83 94 92 76 54 40 20 15 15 18 25 15 16 18 20 27 25 24 25 26 26 29 32 35 35 36 40 44 47 51 49 48 48 50 75 84 75 54 46 43
78 24 94 82 97 100 85 74 99 69 72 34 44 25 19 20 24 22 15 17 21 22 23 24 21 20 20 21 23 25 27 30 27 26 27 27 30 41 64 55 50 57 81 90 74 58 56 49 36
71 83 85 98 69 60 75 45 74 47 72 69 28 18 15 14 14 17 18 16 19 23 21 20 18 18 19 21 23 25 26 26 27 29 31 35 44 53 58 52 61 84 84 81 68 67 65 50 30
26 37 30 26 22 17 26 86 98 83 51 25 16 16 16 17 18 15 14 15 17 18 18 18 19 20 22 23 24 26 28 30 32 34 36 49 57 63 55 62 83 90 86 76 73 74 74 40 22
25 28 21 24 28 20 20 70 77 64 29 19 19 16 16 15 15 15 16 17 18 20 21 22 23 24 26 26 28 30 31 34 35 40 54 62 67 59 70 85 86 86 85 88 83 80 67 40 30
21 46 42 17 17 15 21 26 39 38 21 18 16 16 16 16 17 17 19 22 22 21 20 22 25 27 30 30 32 32 36 41 46 60 62 64 64 80 88 84 72 82 80 66 63 67 82 52 27

GFSSGP_500_rhum_021.txt.gz
RH
12 18 20 25 19 9 9 17 55 59 48 46 61 70 86 71 58 36 18 28 60 87 96 97 95 91 87 88 99 91 79 84 94 60 28 12 5 7 9 10 11 11 10 9 8 8 8 7 10
13 17 21 15 12 9 14 71 70 73 36 56 77 47 54 42 58 52 25 24 27 44 82 90 94 90 79 96 98 96 99 92 95 58 34 9 5 9 8 10 9 9 8 8 8 9 9 10 17
15 17 16 13 10 9 30 68 72 65 45 30 34 34 27 25 24 58 73 36 33 60 82 92 97 82 94 99 98 97 93 94 94 67 20 12 5 8 7 8 7 7 8 8 8 8 8 9 14
11 15 16 17 14 17 77 76 54 49 44 49 52 59 33 32 28 32 32 38 61 72 74 81 93 91 96 99 98 95 97 96 96 86 63 20 5 6 7 6 6 7 8 7 7 8 10 14 15
12 15 18 12 20 70 99 62 69 64 69 80 64 52 47 54 50 38 60 78 84 73 84 91 98 97 96 98 97 97 96 96 96 72 29 11 6 7 7 6 6 7 7 9 10 11 12 16 24
12 14 30 22 83 86 81 51 100 81 67 56 37 50 70 77 66 51 91 90 91 93 93 94 96 97 96 98 97 96 96 95 88 24 8 7 7 7 6 6 6 8 9 9 11 14 11 15 17
35 29 55 52 89 99 98 99 87 68 55 57 27 41 86 76 68 77 84 96 96 88 97 94 91 96 96 97 96 95 96 73 28 12 9 10 8 6 6 8 9 9 9 9 13 16 16 18 28
43 58 55 66 98 84 99 96 100 84 93 58 71 92 72 70 92 78 78 69 80 94 97 96 96 96 96 96 95 94 77 52 38 32 28 6 18 23 11 10 10 12 17 27 54 58 58 57 60
40 64 62 72 99 94 82 89 83 83 83 55 40 38 45 66 92 88 92 80 99 98 96 97 96 96 94 95 92 50 25 25 23 22 25 14 12 13 20 44 49 51 60 63 70 62 73 63 59
45 56 82 90 90 94 94 81 95 77 82 68 88 56 56 88 94 97 97 97 98 97 96 95 95 94 89 74 65 54 50 41 18 15 14 15 28 53 52 56 55 60 57 46 47 47 56 62 51
50 79 96 69 58 60 63 93 86 90 83 84 92 94 96 94 96 97 97 96 96 96 92 88 67 31 17 14 10 12 15 23 76 81 75 74 61 67 59 59 46 36 31 22 32 71 81 62 43
70 98 95 66 61 56 89 67 77 80 74 72 81 89 96 96 96 98 96 35 35 52 52 27 11 11 11 14 17 31 64 77 76 71 66 64 68 63 60 41 28 20 18 30 30 31 35 20 18
92 100 97 88 96 78 92 69 91 67 71 85 76 88 87 88 92 27 49 22 4 4 8 12 15 16 18 29 39 58 63 47 54 89 52 36 45 40 36 34 16 15 14 16 16 17 17 20 20
93 99 86 100 44 62 74 96 89 83 70 90 83 69 31 34 47 6 11 18 6 10 14 15 18 22 29 42 46 52 56 67 68 55 44 31 18 23 18 18 19 18 17 18 21 21 22 23 28
95 92 100 96 57 74 87 90 76 54 20 12 25 10 7 9 4 5 4 7 10 14 17 23 36 42 42 50 59 51 61 53 58 51 41 16 17 17 18 19 19 19 19 19 20 20 20 21 23
68 95 100 85 65 89 74 39 38 28 18 14 14 13 14 15 12 9 10 13 14 20 32 39 40 45 44 54 60 58 74 58 55 38 18 17 17 18 21 22 23 24 25 25 25 24 24 23 21
81 95 85 96 88 74 89 70 51 60 32 60 21 33 17 13 15 13 11 12 15 16 40 53 55 52 34 54 72 84 68 56 49 18 17 17 20 23 25 27 28 28 29 31 32 30 30 28 23
99 98 86 75 77 94 97 64 51 21 35 86 77 45 56 14 14 14 13 11 30 20 37 51 51 31 35 85 80 52 46 38 19 17 18 20 22 21 27 30 32 36 38 40 36 34 33 34 29
95 96 98 87 90 47 49 60 91 31 5 14 25 59 15 14 14 12 10 8 10 39 28 38 60 64 25 24 20 20 18 18 18 17 20 21 23 26 28 31 36 37 37 33 38 38 38 41 36
98 94 96 82 96 59 90 81 51 11 15 13 13 51 15 11 12 10 10 7 12 12 25 52 70 55 25 17 17 17 17 19 19 20 22 21 25 28 31 36 40 38 38 39 47 42 41 44 40
100 96 100 97 89 28 51 74 56 35 38 25 18 19 13 11 14 12 12 10 10 13 30 70 37 23 17 17 18 19 20 20 22 23 25 26 27 30 32 36 38 37 37 44 55 40 44 48 50
93 99 88 78 71 37 54 64 90 99 85 75 36 16 13 15 15 15 14 13 12 14 58 40 24 16 17 21 24 21 20 22 24 24 26 28 30 32 30 26 24 26 28 31 35 40 51 56 62
100 88 92 87 93 98 83 93 92 82 73 100 83 38 19 14 14 17 18 20 18 19 28 33 16 17 20 25 23 21 21 20 20 20 21 22 23 23 24 26 27 29 33 40 42 49 58 67 67
82 55 70 78 70 92 64 83 96 71 89 68 88 69 40 25 24 20 19 31 41 28 20 17 17 18 24 23 20 21 23 22 21 21 22 23 24 26 28 29 31 34 42 51 51 56 69 63 56
71 33 20 16 54 27 72 83 94 83 96 70 39 40 57 27 18 18 27 42 27 17 20 21 21 22 24 23 20 20 19 20 22 23 25 27 30 32 32 35 42 49 52 54 60 72 66 65 65
75 37 48 52 76 65 97 96 92 89 78 69 46 58 42 18 17 23 20 17 21 18 17 17 19 20 20 19 19 20 22 23 25 27 29 32 36 36 38 50 58 60 56 57 72 70 67 71 62
64 71 81 75 90 87 75 76 77 66 70 76 62 39 16 15 21 18 19 17 15 15 15 16 17 18 21 22 23 24 25 28 31 33 36 42 45 48 58 64 66 60 60 68 66 68 68 66 63
34 72 74 63 42 15 21 60 68 85 91 71 26 18 18 17 17 16 15 15 16 18 20 19 20 21 21 23 27 33 35 36 37 40 72 66 58 70 69 68 61 57 74 74 74 83 90 96 98
30 33 37 30 27 18 18 56 86 77 59 46 25 19 18 17 17 16 16 16 19 20 21 20 19 21 33 42 41 39 39 50 50 64 71 65 71 68 69 58 66 72 72 68 81 88 97 96 92
28 25 72 56 34 20 12 17 37 63 58 65 42 18 17 16 16 15 16 18 19 20 23 28 29 27 30 40 42 51 63 63 63 66 67 68 72 64 69 76 69 62 63 71 88 100 85 91 100

GFSSGP_500_rhum_024.txt.gz
RH
10 13 13 13 17 11 16 36 42 73 69 50 31 63 67 93 81 56 42 42 33 34 40 54 86 88 90 96 93 85 88 93 96 99 94 90 51 8 9 12 10 11 11 10 9 8 7 7 7
7 10 12 12 16 21 32 53 47 46 35 30 30 42 76 88 90 72 53 32 42 52 54 43 58 94 92 74 96 94 96 99 98 98 96 89 37 10 6 10 11 10 9 8 8 8 8 7 6
7 7 12 12 12 20 50 65 58 51 34 32 38 49 76 89 95 73 54 41 48 74 69 65 60 70 76 81 95 97 98 97 97 98 96 88 31 14 17 10 18 8 7 7 8 7 8 8 10
7 8 12 16 22 53 51 60 42 36 30 44 46 61 54 63 56 59 62 67 59 54 61 51 54 72 75 84 96 98 98 94 97 95 97 74 32 52 35 26 7 7 7 8 7 8 9 10 12
9 11 14 24 62 60 47 45 36 56 59 78 85 73 70 62 54 69 72 78 72 46 75 78 71 81 93 88 99 98 96 97 99 99 94 78 50 34 24 9 7 6 7 7 8 7 7 7 9
12 18 41 50 69 64 76 65 76 77 93 90 78 67 58 54 44 62 68 69 98 86 78 72 94 95 96 99 97 95 97 98 97 96 86 49 25 12 7 7 6 6 6 7 7 8 17 27 25
20 44 73 69 92 70 69 84 98 86 94 88 63 56 49 40 38 72 77 86 96 96 95 98 95 96 94 98 97 97 97 96 92 45 16 8 7 7 10 9 16 27 9 10 18 46 50 46 54
39 61 76 92 88 72 76 85 79 72 85 73 67 64 47 48 53 72 78 94 96 96 96 96 94 98 96 96 96 96 95 77 25 25 30 17 34 22 34 31 13 35 51 50 53 56 50 49 49
94 98 95 94 88 88 73 60 68 71 90 91 93 56 43 34 41 45 71 95 91 81 96 58 94 97 96 96 94 94 94 91 88 83 60 49 42 40 29 23 47 44 40 33 32 28 34 41 69
94 52 90 88 80 71 68 86 75 71 81 85 87 70 69 44 76 96 97 91 93 86 97 96 98 97 95 94 89 83 76 82 67 33 18 24 41 53 43 56 50 46 39 16 15 17 29 38 52
78 50 88 89 75 69 57 54 41 55 87 77 67 68 76 63 88 97 97 98 96 98 96 96 96 95 88 81 77 76 60 32 42 41 46 54 52 47 49 56 52 30 16 11 10 10 13 13 15
86 76 86 76 68 51 51 43 72 68 69 70 59 78 90 96 97 96 96 95 94 96 88 77 88 82 54 19 17 30 56 68 69 71 67 54 40 30 27 27 19 13 15 14 14 15 14 13 14
88 84 71 61 70 84 97 87 100 91 88 68 73 95 97 96 96 95 86 22 12 21 19 15 17 18 19 28 40 40 42 43 57 64 71 47 39 17 19 15 13 15 17 17 17 17 18 18 19
88 83 71 61 88 78 70 82 99 84 98 89 93 94 93 84 66 50 40 18 9 11 13 12 13 20 31 39 40 44 47 43 50 48 47 36 17 16 16 17 20 22 23 22 22 22 21 21 23
82 99 76 69 79 61 78 86 91 55 22 38 53 41 20 23 41 13 20 26 12 13 14 11 22 36 46 50 65 61 51 59 53 49 27 17 17 17 19 21 23 26 25 24 24 25 24 25 28
68 92 67 71 81 86 60 59 41 36 23 22 15 20 17 13 17 19 14 16 16 16 28 32 26 28 26 20 58 64 79 66 59 40 18 16 17 19 21 23 24 26 27 29 31 27 30 30 35
62 87 85 83 87 98 76 64 59 48 59 35 34 20 18 26 30 17 17 16 14 37 61 52 43 36 32 28 66 63 56 46 33 20 16 16 18 21 23 26 25 27 32 36 38 40 42 36 36
66 59 79 96 85 78 43 60 61 36 11 52 54 71 29 14 12 13 20 37 39 42 44 39 57 74 65 29 22 27 20 20 17 17 17 18 20 22 24 26 29 32 35 37 38 36 31 28 35
98 92 82 94 95 99 62 51 58 56 14 27 39 55 19 13 10 12 16 20 23 50 27 34 68 59 54 31 19 21 18 18 19 20 20 20 22 26 28 28 30 30 28 26 25 26 27 31 35
98 69 90 72 60 87 69 48 55 60 14 39 29 32 48 44 13 10 11 13 18 23 29 56 66 38 31 18 18 19 20 21 21 21 23 25 26 26 26 26 26 25 25 27 28 27 29 31 38
83 97 88 93 74 94 84 63 51 48 31 68 56 18 15 9 11 11 11 12 12 17 22 82 60 51 16 17 20 23 23 23 24 26 27 26 25 25 26 25 25 26 28 31 31 31 35 45 47
74 89 75 83 99 94 29 66 35 29 40 61 70 45 14 18 19 15 13 13 12 21 71 50 62 32 21 45 23 25 25 25 27 26 23 23 23 23 24 25 27 26 28 30 33 40 50 49 51
80 78 84 99 87 42 65 71 86 75 78 56 70 65 69 31 22 17 21 19 31 58 58 42 35 28 30 38 22 26 27 27 23 20 21 22 23 24 25 26 26 28 32 41 46 48 51 53 50
68 70 86 84 92 75 68 84 70 95 99 85 72 71 37 32 26 14 18 24 52 58 74 28 24 24 25 26 26 22 20 19 20 21 20 20 23 26 28 29 35 49 52 53 56 54 54 49 52
74 55 60 62 75 92 90 52 52 96 83 78 78 50 31 32 19 18 22 21 49 54 56 23 21 22 20 18 18 18 19 20 19 19 23 30 31 31 32 54 66 65 48 57 59 56 53 57 63
50 72 39 36 26 32 60 24 48 93 93 85 53 59 64 23 16 20 21 33 28 51 24 28 16 17 18 19 20 20 19 20 27 32 34 34 35 47 53 71 74 63 63 62 56 62 67 59 56
64 70 61 48 43 49 88 70 68 68 70 36 63 30 17 18 18 19 18 24 44 32 20 25 21 21 21 20 20 20 24 29 33 36 39 42 58 64 63 66 70 70 68 61 65 69 62 59 70
48 85 98 84 72 73 41 22 23 23 38 78 63 28 21 20 18 16 16 18 19 20 19 19 20 20 22 27 30 33 32 34 41 47 52 62 68 66 62 70 77 70 70 75 73 72 68 81 68
54 31 60 97 86 36 22 29 23 27 36 49 39 35 21 18 18 17 18 20 21 20 19 19 20 24 33 44 54 55 61 63 58 58 56 57 64 75 82 87 73 75 82 79 71 76 90 93 96
44 32 32 36 41 48 22 18 35 44 65 54 26 21 18 18 16 17 18 20 19 21 21 22 27 38 45 69 93 84 78 68 48 44 55 66 81 83 81 76 78 79 81 91 97 88 82 94 91

GFSSGP_500_rhum_030.txt.gz
RH
14 14 12 13 24 20 27 42 60 56 66 88 79 78 92 100 92 78 63 66 98 95 69 55 49 46 44 39 53 53 71 97 96 73 63 67 88 82 86 84 46 16 14 11 11 11 9 8 7
15 12 13 10 25 37 56 65 52 43 37 75 87 91 99 100 88 74 61 65 81 84 78 63 62 52 47 46 49 49 46 65 71 78 85 85 87 91 91 61 34 17 14 11 12 15 8 7 7
14 12 13 10 21 54 74 61 44 36 35 51 77 83 90 88 81 62 64 75 71 69 71 74 74 72 78 59 54 57 65 64 75 86 98 88 90 92 86 77 54 10 13 26 19 16 7 7 7
12 14 14 12 21 50 62 67 54 32 29 50 61 87 85 66 66 60 57 67 71 75 84 74 63 71 95 95 76 84 83 70 85 94 99 93 98 98 93 60 17 12 26 26 20 16 7 11 13
14 16 16 13 32 58 57 58 57 43 38 55 59 74 78 85 63 53 60 66 67 72 72 78 73 74 92 97 80 88 81 81 98 93 92 98 98 85 73 23 18 28 31 32 22 7 16 33 19
16 18 18 21 43 63 53 59 52 51 61 77 93 89 82 76 70 66 54 56 61 63 68 77 77 97 97 96 94 96 94 94 98 97 97 99 97 92 86 62 43 39 33 14 8 25 28 24 23
19 24 32 52 50 72 67 60 61 55 83 94 89 72 78 84 74 80 77 66 59 53 60 70 92 94 98 96 97 97 90 98 97 97 99 96 96 65 34 26 27 15 11 34 34 29 28 21 26
23 32 70 90 85 84 76 61 58 60 72 75 76 75 74 72 81 76 60 58 56 47 54 86 95 97 92 96 92 93 95 96 99 97 96 91 53 22 15 13 33 45 45 41 36 28 39 32 11
24 84 86 91 89 76 85 83 87 77 98 86 80 75 71 84 71 61 49 45 40 42 62 75 96 96 95 85 97 96 97 98 96 92 71 33 18 22 37 40 46 42 36 35 49 38 12 11 10
37 100 78 99 100 100 92 89 91 90 78 68 65 62 66 64 57 53 38 31 27 40 68 93 96 97 97 94 97 96 96 97 96 86 76 72 70 57 47 39 42 53 55 46 16 14 14 14 13
78 100 98 100 99 99 93 91 84 76 71 65 66 63 71 62 61 62 50 48 60 83 95 96 97 96 96 96 96 96 96 96 94 94 87 59 53 59 60 65 63 62 39 14 14 16 17 16 16
99 100 100 97 91 93 79 79 86 62 61 49 49 55 65 74 66 66 86 70 73 93 95 96 94 97 97 96 95 92 90 88 91 88 70 60 61 60 51 33 15 17 16 17 15 15 16 16 17
93 77 81 79 90 84 94 88 86 64 58 66 86 77 75 86 95 97 98 96 96 80 75 77 66 64 58 50 53 56 57 77 95 94 86 83 71 45 22 15 16 16 17 15 17 18 15 16 16
81 93 56 64 70 89 85 75 76 79 72 94 98 92 95 97 94 91 67 29 34 30 31 32 37 45 45 50 68 68 74 76 70 69 58 36 24 16 15 15 16 18 19 20 18 16 16 17 17
77 80 96 100 88 66 91 92 96 87 75 91 88 95 95 82 31 18 18 18 20 24 23 28 38 44 49 57 57 56 57 52 52 56 51 43 18 16 16 18 20 20 18 17 17 17 17 18 19
83 85 86 96 94 78 92 69 54 50 44 61 67 28 41 43 28 18 18 19 24 31 42 44 42 41 34 25 47 53 61 70 66 60 52 23 16 16 16 17 18 17 16 16 17 18 19 20 19
88 100 95 73 90 93 76 48 67 66 70 59 33 26 21 17 19 18 17 21 29 44 43 44 45 40 35 30 39 48 42 50 46 28 17 16 16 15 15 17 19 17 16 17 19 20 20 21 24
72 89 93 71 80 93 73 48 31 65 62 76 68 36 24 19 17 19 20 24 30 49 39 41 55 73 66 46 29 13 12 35 16 16 16 15 15 16 18 17 16 16 18 20 21 21 23 27 25
78 65 70 85 83 68 67 56 35 37 48 56 96 60 23 20 17 18 25 40 38 35 25 41 69 52 45 29 16 20 40 33 19 17 16 17 18 16 16 16 18 20 21 21 26 30 29 31 41
72 72 88 99 93 57 51 58 27 18 36 34 61 82 28 21 24 20 19 18 20 19 25 38 75 64 66 34 20 18 23 19 19 20 19 18 16 16 18 20 22 22 25 30 32 33 44 53 54
84 92 98 100 63 77 45 33 44 25 31 52 41 45 31 38 19 18 17 16 17 19 21 39 66 60 57 58 16 16 26 28 39 55 24 19 18 18 19 20 22 24 29 30 33 38 42 54 52
100 92 96 100 85 70 76 59 46 25 72 63 75 60 38 21 18 21 23 19 17 16 16 46 78 65 72 74 49 30 52 67 90 76 21 18 19 19 18 21 26 27 28 36 57 64 54 50 52
89 75 67 68 60 49 57 42 45 17 21 64 61 80 68 37 20 21 34 41 32 16 18 50 89 92 77 69 67 42 75 95 82 75 44 20 21 22 30 38 51 41 60 99 100 86 57 53 55
66 61 51 46 46 44 53 45 40 47 56 88 87 66 77 64 20 25 31 45 38 20 23 60 97 84 72 77 71 44 44 61 58 58 50 35 32 41 43 58 58 43 64 100 95 62 51 53 55
57 57 54 53 51 48 60 45 44 68 59 60 74 64 57 50 34 36 27 27 26 22 30 48 92 98 70 76 78 42 24 28 32 34 31 38 52 50 68 83 61 54 42 52 52 54 58 60 59
59 58 62 56 58 65 54 38 30 64 35 68 68 73 49 49 33 27 37 21 36 30 35 49 92 98 63 59 44 24 20 27 30 27 63 81 82 87 92 84 50 49 54 58 62 62 61 58 51
81 78 70 61 58 58 47 36 30 52 50 48 56 53 43 53 53 18 16 18 18 18 36 46 64 60 32 22 22 19 20 19 54 78 77 82 96 100 72 55 46 54 55 61 65 64 56 50 51
76 77 74 63 49 44 43 44 37 43 47 52 47 66 51 38 16 16 17 17 17 16 17 32 32 16 18 20 20 18 20 46 65 65 96 100 91 67 56 49 48 52 55 60 64 55 47 45 69
77 52 51 70 70 70 49 35 62 42 30 34 60 70 53 44 19 19 19 18 18 17 18 17 16 19 21 21 24 30 68 80 80 95 91 69 52 54 64 45 43 48 63 71 60 52 54 69 90
77 64 71 73 58 74 57 17 41 25 22 24 26 21 36 55 39 22 21 19 18 19 19 18 32 27 30 45 61 77 79 75 69 38 41 37 44 45 42 44 53 76 85 71 64 78 90 81 92

GFSSGP_500_rhum_036.txt.gz
RH
17 14 21 18 18 17 36 61 32 27 35 68 82 76 93 66 90 91 83 85 94 79 75 75 66 60 62 61 62 50 45 38 27 29 45 75 85 55 82 94 81 77 66 43 25 24 15 11 13
18 16 18 21 17 35 64 47 50 36 24 36 73 87 75 76 85 66 60 80 96 96 83 97 75 70 69 58 56 50 47 35 21 32 40 86 58 57 85 91 81 81 67 53 41 26 13 12 18
19 17 13 15 15 51 71 50 44 43 34 25 42 70 69 93 64 51 63 98 95 90 68 84 72 83 75 64 62 46 53 67 39 50 58 60 57 67 83 92 86 82 74 71 42 16 13 22 21
23 18 13 13 53 42 30 60 69 54 41 44 45 41 66 93 90 96 95 89 96 89 72 70 66 68 83 82 80 47 49 64 79 56 70 64 59 85 90 98 86 85 82 61 23 12 24 25 21
23 19 15 16 19 22 46 78 72 65 55 47 50 66 59 69 83 91 86 90 79 73 72 79 73 79 85 82 54 45 65 69 86 94 99 80 74 97 96 97 95 79 70 40 10 26 29 25 15
22 18 22 61 45 57 67 80 81 74 67 65 57 56 73 61 79 74 68 77 80 69 77 85 81 85 73 64 71 72 83 86 96 94 90 94 94 97 98 94 90 78 42 21 25 32 28 14 33
22 19 38 34 98 94 96 89 78 74 71 72 62 58 59 64 59 62 80 87 84 74 70 86 85 94 87 76 99 80 78 97 96 95 95 97 96 98 93 95 84 65 48 39 34 19 38 34 36
23 24 37 68 100 100 100 89 75 75 68 62 75 69 59 60 58 45 45 72 91 89 93 96 92 97 96 95 83 83 86 97 98 90 95 98 98 98 90 86 49 36 28 17 39 38 35 44 37
22 30 89 94 98 94 92 91 88 79 74 82 52 62 69 72 71 74 78 77 77 91 87 81 85 90 95 96 96 83 84 97 97 96 92 98 96 94 77 45 31 23 32 48 39 49 46 17 12
20 49 84 86 89 90 92 86 92 94 86 93 79 62 56 61 62 65 62 59 61 73 76 69 73 70 77 80 86 93 96 96 96 96 96 95 90 83 63 36 26 41 42 40 52 53 26 12 11
36 91 80 79 89 86 93 77 88 85 96 94 84 87 79 66 60 56 57 56 62 69 61 62 63 51 95 96 96 96 96 97 97 96 96 95 95 93 59 52 49 47 49 51 62 32 13 12 11
35 80 78 65 82 86 91 79 81 64 69 73 68 74 71 57 55 50 51 54 59 56 60 62 59 63 84 90 96 98 97 96 96 96 96 95 93 82 62 60 58 57 57 30 15 14 12 12 12
30 60 76 73 81 87 84 97 97 78 75 74 65 59 63 65 59 53 44 52 61 58 58 71 64 90 96 97 96 97 98 97 97 96 95 93 90 76 66 57 52 37 14 13 14 14 14 14 13
66 56 43 54 72 91 94 82 84 88 82 86 83 64 60 66 70 72 68 81 78 69 70 73 84 98 97 98 98 98 97 96 94 83 73 69 63 59 61 67 44 15 14 15 16 15 14 13 12
77 84 59 68 87 100 92 87 92 96 97 100 100 96 98 97 98 98 99 99 97 97 98 94 95 95 96 100 100 91 88 90 67 64 73 76 74 67 46 22 16 15 15 15 15 15 13 14 13
78 91 97 99 95 97 94 94 87 94 97 90 97 79 89 91 90 68 75 62 65 63 47 54 60 75 54 43 46 67 70 80 83 83 79 69 56 43 14 15 16 15 15 16 16 14 14 14 12
70 100 99 88 97 90 93 93 83 95 67 56 82 86 49 41 35 28 26 26 35 35 35 37 40 45 45 46 57 60 66 61 69 58 60 78 69 28 16 16 15 17 17 15 14 14 14 11 12
100 100 100 100 78 95 93 96 83 87 76 43 36 55 36 37 33 28 32 34 43 40 35 28 27 48 59 60 65 63 62 69 67 69 76 68 38 21 17 17 18 17 15 17 17 16 17 17 12
55 91 100 95 72 100 87 97 90 89 94 52 42 28 32 31 29 30 34 42 45 42 45 47 43 44 57 43 40 34 35 35 32 62 42 21 19 19 20 21 18 16 17 18 18 22 21 17 16
55 80 97 78 80 100 97 88 82 78 65 89 43 29 24 28 28 31 38 49 49 46 51 56 69 67 61 48 31 21 23 52 74 51 23 21 20 21 24 18 18 23 28 34 34 33 25 17 28
45 72 68 62 69 100 94 82 71 60 42 52 78 71 32 24 22 27 41 49 56 47 37 41 69 66 52 50 50 26 29 46 54 57 33 26 31 49 68 69 69 69 56 46 41 32 23 36 48
58 38 52 52 77 100 60 99 59 49 45 61 38 60 42 34 33 20 32 27 30 27 23 27 35 40 68 68 62 64 21 28 60 81 84 89 98 99 97 74 57 44 49 54 50 37 47 64 64
65 54 41 52 91 84 74 73 91 45 46 77 76 30 32 22 21 21 19 17 14 14 14 13 14 27 48 64 60 77 79 35 70 78 59 39 55 78 86 85 81 88 72 75 57 48 69 74 65
58 57 63 75 86 80 69 62 98 65 41 63 70 78 63 50 29 17 18 19 18 20 19 17 17 22 42 78 89 99 97 92 90 92 84 46 30 60 96 100 96 84 85 56 56 68 76 55 50
47 58 91 100 96 84 58 52 84 62 38 54 40 76 79 66 64 73 58 21 16 17 22 19 21 29 88 55 96 98 96 96 98 89 56 31 29 67 86 93 86 86 78 45 70 84 54 62 62
50 61 85 100 77 99 63 51 82 60 46 35 40 45 61 76 83 83 80 73 60 24 33 32 31 25 94 46 97 100 97 62 48 32 32 47 67 88 92 84 70 36 37 60 63 46 57 82 42
48 47 58 61 59 60 66 58 58 50 36 34 34 51 45 74 87 81 82 57 50 44 46 43 37 42 50 94 98 94 76 43 34 52 70 81 87 86 92 89 81 78 99 56 35 56 61 60 52
58 55 59 57 59 64 83 60 85 66 50 40 38 51 68 71 78 91 66 67 73 63 43 25 31 28 24 56 85 40 34 70 84 89 90 88 87 91 94 95 98 99 100 88 44 62 79 78 83
52 45 56 71 61 59 54 59 48 73 60 50 44 40 54 53 74 74 65 25 23 23 24 21 19 19 20 20 19 22 48 94 97 94 90 82 86 90 92 94 100 99 73 57 64 84 100 100 94
54 57 60 65 64 53 55 42 51 61 64 47 59 44 33 46 78 90 85 64 26 22 22 21 21 22 22 21 22 62 87 97 96 47 47 80 85 72 68 83 86 76 47 55 83 100 97 94 100

GFSSGP_500_rhum_039.txt.gz
RH
4 6 14 15 20 19 57 67 63 82 50 67 36 96 78 93 89 88 97 96 74 92 83 90 91 89 86 78 69 62 59 59 50 38 29 39 67 69 62 60 72 71 69 64 56 51 37 16 12
5 8 17 14 20 67 59 63 75 74 77 94 25 21 64 84 69 32 53 72 83 93 91 96 97 92 86 71 62 58 58 54 42 30 29 28 36 61 58 50 83 81 75 68 62 54 31 15 12
7 14 18 28 67 61 67 87 73 92 81 29 25 31 25 86 45 45 48 37 62 61 74 96 95 91 84 68 68 66 64 50 74 63 37 41 59 56 47 58 86 89 78 77 68 60 30 14 19
8 17 19 14 72 63 77 93 97 100 74 40 39 21 23 65 100 98 63 52 78 94 99 96 97 94 80 77 75 77 78 47 58 88 59 54 72 61 54 63 80 81 76 76 76 53 20 17 25
11 20 32 88 73 76 79 94 100 100 97 46 48 95 29 55 70 93 96 98 98 98 96 95 78 72 69 73 77 90 85 43 45 72 90 74 88 79 68 89 82 84 86 86 67 26 18 28 26
13 21 88 86 74 76 90 90 84 72 64 56 60 64 31 64 65 56 78 80 90 82 81 95 87 77 75 72 66 63 66 42 68 94 99 93 98 79 89 88 84 75 85 71 37 20 24 31 19
15 60 88 76 83 93 76 36 62 100 99 81 53 40 69 85 77 96 83 76 91 88 96 96 97 91 90 77 70 96 75 66 83 87 98 92 98 90 94 91 81 85 72 48 29 36 28 26 36
14 18 83 83 96 88 83 54 75 69 85 68 70 72 82 41 57 79 80 71 71 90 96 96 97 97 87 91 93 80 74 89 95 88 96 96 94 85 94 88 86 87 64 41 30 23 41 37 43
14 55 91 98 96 96 89 81 81 77 74 56 59 51 76 65 47 42 57 64 73 91 90 91 96 92 90 95 96 95 81 93 94 97 96 96 96 96 94 93 90 46 28 19 34 42 46 39 20
14 92 94 81 93 54 86 77 73 76 92 59 58 80 57 51 53 50 51 65 78 78 81 83 90 87 91 92 89 77 95 92 96 96 96 95 95 96 98 95 73 26 27 43 46 51 48 26 14
27 100 93 98 65 75 75 83 65 58 93 95 98 88 61 62 47 47 50 55 55 59 55 65 70 76 82 70 63 86 86 99 94 97 97 96 96 96 96 95 80 30 46 50 54 57 40 15 10
13 50 38 60 69 71 75 74 68 75 72 77 73 82 76 80 72 67 57 43 45 53 60 58 65 69 70 68 67 96 79 98 96 96 97 95 96 96 96 93 84 55 54 56 49 28 16 13 12
12 61 31 48 73 72 66 70 94 73 63 65 59 59 65 60 65 60 52 53 50 47 54 69 65 66 65 68 96 87 88 97 97 96 97 97 96 96 87 62 64 56 49 26 16 17 14 12 12
15 12 28 33 50 59 66 66 55 81 74 62 66 60 72 67 49 54 57 56 50 44 46 57 58 81 99 81 99 97 96 95 97 97 97 97 94 80 68 62 55 45 20 15 15 14 14 14 12
14 38 86 85 50 77 85 87 96 73 84 90 92 73 65 96 63 78 75 67 61 53 66 67 75 72 75 85 97 97 96 91 100 96 95 88 64 60 58 58 58 32 16 14 16 16 14 11 11
27 66 94 95 71 100 84 95 71 63 90 83 90 98 98 95 96 96 99 98 93 98 100 99 97 98 97 97 96 96 97 98 90 51 62 59 65 70 56 37 19 17 17 16 16 14 12 11 11
54 100 99 92 83 78 96 95 69 61 76 90 94 91 95 86 71 76 75 79 69 61 70 82 88 94 90 68 51 48 54 63 68 72 68 71 66 63 53 17 18 17 16 16 15 13 11 11 11
100 99 99 87 92 55 91 87 79 70 76 54 54 58 48 37 39 33 34 41 42 38 38 36 36 45 62 69 57 70 64 74 78 71 76 73 93 78 37 20 18 17 16 15 14 12 10 15 14
100 96 100 87 98 62 99 89 97 68 69 81 60 29 29 31 26 28 32 39 38 33 29 26 25 50 56 50 40 43 66 73 90 90 94 87 63 42 21 18 19 18 18 15 14 30 31 26 27
86 100 97 99 59 50 88 100 99 67 42 67 52 28 25 24 28 30 33 35 36 33 36 37 44 46 70 60 45 37 33 37 49 51 86 63 27 21 22 22 22 20 19 26 52 59 57 41 49
100 100 100 89 91 53 64 83 99 94 39 43 64 43 29 24 21 22 22 22 32 41 37 32 29 45 56 56 45 34 21 20 34 66 62 33 23 27 30 36 44 58 64 71 66 47 47 49 33
100 86 83 55 52 99 77 98 89 100 39 29 34 59 49 24 22 20 23 28 35 38 35 26 20 21 38 54 63 62 46 21 44 63 59 63 56 67 97 96 95 97 94 71 58 65 59 73 30
100 96 48 64 100 100 81 90 82 89 60 49 43 56 40 36 31 18 14 17 15 14 14 14 15 14 13 23 62 63 62 70 32 32 61 89 94 74 86 67 80 84 80 86 82 72 76 50 30
86 78 69 54 95 100 97 94 91 100 87 100 94 60 59 48 47 37 17 13 14 15 16 17 16 18 19 20 26 56 75 80 98 98 54 86 90 91 46 46 64 86 93 94 81 58 36 41 49
55 94 97 99 99 74 99 64 92 94 99 73 72 99 52 33 44 61 65 72 58 34 21 18 20 33 30 58 88 86 98 98 96 98 98 98 88 56 50 68 86 92 96 92 82 66 44 69 99
48 100 100 97 100 94 88 45 87 92 65 42 38 47 54 54 42 45 60 67 68 64 62 55 32 38 96 90 78 56 98 97 96 62 94 69 58 66 76 82 95 99 95 89 71 65 57 92 84
96 97 94 95 76 79 98 84 63 54 50 47 44 34 37 47 57 51 79 71 71 63 60 70 56 59 59 42 57 49 98 64 50 49 62 74 81 85 83 93 94 94 93 96 100 76 95 100 96
48 99 100 90 90 94 94 97 98 95 76 42 46 40 40 63 62 80 89 91 84 64 60 60 61 29 25 55 24 77 70 24 23 41 78 94 95 91 91 88 90 83 82 69 60 77 96 95 61
42 57 90 100 100 98 98 96 99 86 56 53 80 45 40 60 94 88 93 93 91 43 28 22 24 24 20 21 21 60 23 24 28 70 74 93 55 32 48 65 40 33 30 39 74 72 54 48 70
100 58 100 100 100 95 82 62 100 58 47 36 50 52 48 46 66 74 93 92 79 75 39 26 23 21 21 21 24 29 25 23 41 65 63 50 18 27 27 30 39 41 33 37 48 54 41 61 100

GFSSGP_500_rhum_042.txt.gz
RH
7 3 3 5 10 14 21 30 49 70 87 78 72 90 68 77 89 56 62 64 84 94 94 84 84 86 83 78 70 64 62 66 68 65 57 48 34 52 74 71 58 57 63 66 63 58 52 42 33
4 3 5 8 13 38 69 86 61 72 90 65 62 44 68 88 85 70 96 84 90 94 79 98 88 85 82 77 76 78 79 73 66 58 44 38 28 27 44 62 58 56 72 70 65 60 56 48 32
3 5 6 14 38 49 76 74 88 92 60 26 31 30 95 98 97 98 98 91 96 92 88 95 93 96 88 97 98 93 82 67 65 57 56 36 31 28 40 51 56 62 83 72 75 72 68 54 30
4 6 16 23 52 80 73 68 78 75 77 38 83 89 76 64 53 56 97 75 77 92 96 100 92 94 86 96 96 86 79 85 72 52 78 71 45 42 42 46 47 56 82 76 80 73 68 49 24
4 12 41 91 93 72 73 54 47 45 30 37 59 53 92 96 41 31 52 94 71 94 97 82 84 96 96 96 97 95 100 92 80 47 52 58 76 68 65 72 66 76 83 84 82 81 60 29 26
5 22 93 98 89 82 60 22 22 76 29 31 46 33 48 83 68 67 36 49 85 89 83 80 97 93 98 91 88 82 77 68 71 54 46 80 78 87 86 80 88 87 80 75 77 65 41 24 31
9 40 73 86 71 67 66 73 78 97 84 94 97 89 74 55 67 84 51 44 65 96 82 76 96 97 88 82 83 77 64 47 68 61 68 91 88 95 85 92 88 85 77 71 66 40 33 31 27
12 28 76 88 85 70 77 67 52 76 91 26 76 85 68 55 59 73 78 69 78 95 88 97 93 97 93 93 88 96 69 84 96 81 77 87 91 91 94 91 87 87 79 76 62 37 22 37 38
13 44 93 95 100 100 67 60 32 80 50 15 38 37 56 98 81 61 70 72 67 77 95 93 95 95 96 96 97 97 97 97 98 86 94 87 95 96 95 95 95 92 84 50 34 23 42 44 38
14 62 100 93 61 38 55 57 23 24 55 57 95 32 37 54 49 48 46 39 56 79 94 82 91 96 94 96 96 96 94 94 96 95 85 89 89 95 96 95 96 98 52 35 23 46 45 46 30
22 65 98 83 52 16 49 31 89 52 90 46 79 75 45 66 57 38 39 41 48 64 61 76 84 95 95 97 97 78 66 68 85 92 98 96 94 94 96 96 96 95 89 80 48 48 56 46 22
15 24 50 32 36 18 46 100 94 77 85 53 58 51 60 69 49 41 50 52 45 47 49 52 62 68 74 73 79 68 69 97 79 97 97 97 96 92 97 95 97 95 82 62 57 54 46 22 14
40 28 27 23 14 27 30 43 58 52 50 51 47 47 49 53 58 42 45 53 60 50 45 41 44 48 50 57 54 58 81 81 97 94 90 96 98 97 98 97 96 91 68 51 44 30 17 15 13
29 11 15 46 28 29 43 53 85 93 58 60 54 48 44 38 44 50 56 54 46 39 38 35 32 37 48 55 94 99 72 97 97 97 96 97 97 97 97 94 88 62 41 27 17 15 16 14 12
10 22 63 96 93 72 76 93 90 74 50 78 80 67 43 39 89 34 37 44 50 50 46 42 42 42 44 55 100 99 92 97 96 92 96 98 97 97 84 65 55 57 47 19 16 16 14 14 12
14 41 65 94 80 74 84 93 94 64 55 67 80 96 78 48 69 94 61 68 74 59 52 49 44 50 52 82 91 100 97 96 95 96 97 97 92 77 68 62 56 46 26 17 16 15 15 12 11
52 60 93 71 85 69 85 99 89 84 76 76 77 93 78 93 96 96 93 72 73 74 94 93 80 84 96 99 97 96 97 96 94 95 71 53 63 75 58 46 26 17 17 17 17 16 12 10 10
100 93 98 94 76 75 83 98 70 90 61 72 66 74 68 39 41 44 45 42 45 33 33 40 48 69 88 88 73 64 70 83 69 60 90 74 71 62 72 55 17 18 19 18 17 15 10 13 44
93 97 94 86 69 70 76 95 95 70 81 46 63 29 23 24 54 29 56 41 32 27 29 25 37 42 46 32 38 40 47 56 74 85 81 86 87 94 68 38 26 21 20 19 18 14 14 32 66
79 86 99 98 88 54 52 73 92 80 63 29 42 53 22 18 20 21 20 25 29 24 31 33 37 40 51 44 41 39 36 44 74 96 88 100 97 68 37 28 73 32 20 19 18 17 46 60 62
14 36 80 92 98 89 51 61 96 91 65 59 22 34 42 18 13 13 14 15 25 27 35 33 25 20 25 42 36 38 34 24 20 20 44 91 87 80 31 22 24 36 28 54 74 70 74 76 68
20 54 97 89 96 73 98 86 81 96 67 58 30 21 37 45 16 12 13 22 21 26 31 24 13 12 12 15 21 42 50 55 42 26 51 76 58 32 38 46 78 96 82 80 97 86 85 82 58
71 70 86 66 60 82 99 88 96 90 81 80 56 55 61 38 34 35 21 12 13 12 12 12 12 13 13 13 17 25 28 55 79 82 49 58 66 75 93 97 59 52 72 75 86 92 97 86 80
87 67 95 62 33 70 75 97 96 98 95 96 88 80 60 52 46 47 36 40 27 15 13 13 13 15 23 24 36 50 72 80 81 98 90 97 71 81 92 84 93 61 66 79 90 92 98 94 92
36 58 53 80 89 66 83 100 98 99 91 98 80 62 23 33 50 42 29 45 56 72 74 62 56 42 28 38 73 92 97 92 87 90 99 96 99 98 98 97 86 78 78 88 97 89 93 92 80
34 46 53 73 88 94 98 75 67 74 67 84 48 50 37 31 29 33 36 24 36 61 61 60 49 47 41 42 63 93 93 72 81 83 89 94 95 90 90 91 88 85 93 95 98 91 93 78 88
72 36 70 82 98 95 87 88 88 71 72 42 40 40 43 47 34 25 32 20 21 44 63 52 44 42 40 23 21 48 42 23 75 23 19 27 56 87 96 97 94 91 65 75 70 84 71 52 44
26 84 66 90 94 96 89 78 96 90 99 89 44 39 33 34 35 32 70 88 63 43 46 50 42 50 28 25 27 29 20 23 71 21 20 30 64 65 83 53 34 32 37 40 56 65 49 48 39
27 24 50 72 96 96 63 68 80 92 73 100 61 40 31 34 42 34 36 53 59 67 96 81 38 49 61 88 67 34 21 25 43 24 22 39 59 58 58 39 32 35 32 26 23 26 27 40 39
46 16 39 89 63 76 72 48 99 99 99 88 52 37 28 16 14 39 46 73 76 84 85 57 50 63 72 58 38 71 78 77 37 34 44 78 68 87 56 40 45 32 25 26 27 32 38 37 42

GFSSGP_500_rhum_045.txt.gz
RH
15 6 2 2 3 5 26 36 58 76 93 91 89 94 87 74 62 72 79 91 70 47 97 97 99 95 93 84 76 74 75 70 64 67 64 66 62 54 47 66 64 64 60 62 62 56 57 53 52
11 3 2 3 5 14 42 38 75 99 99 100 90 82 69 73 90 84 66 66 54 60 77 95 96 96 85 85 85 82 78 76 78 78 77 64 58 42 34 51 76 69 63 64 65 61 60 58 51
6 3 3 5 12 48 68 81 94 97 88 92 73 70 57 57 71 73 69 77 76 66 70 85 96 95 87 93 80 82 82 79 79 81 73 64 50 33 29 50 64 64 67 66 60 64 68 66 64
3 3 4 13 32 60 79 96 86 77 89 63 66 50 39 54 58 78 83 71 94 97 95 99 97 90 85 89 83 88 88 77 87 85 70 59 71 51 37 61 64 52 50 62 77 72 71 69 66
4 4 7 12 78 61 53 62 68 45 48 70 67 50 52 88 94 89 71 82 94 96 90 91 91 96 91 90 86 95 84 89 95 84 70 54 64 76 69 63 65 67 53 69 85 75 78 69 46
4 4 5 23 96 92 84 82 76 76 21 23 34 41 76 76 62 95 77 49 59 82 92 86 96 96 90 91 97 96 82 95 91 79 75 52 49 67 84 80 80 74 85 83 79 67 66 46 33
5 7 7 38 88 84 68 67 70 60 38 66 46 78 90 91 61 88 97 98 58 67 93 80 96 91 94 94 96 94 95 90 79 67 66 68 56 51 89 86 93 93 91 80 73 63 50 36 29
6 10 46 90 99 99 63 49 68 67 67 100 60 77 67 96 86 89 88 85 100 56 80 95 80 94 93 98 96 97 95 61 52 45 56 79 63 71 95 96 96 94 96 84 73 62 42 27 35
6 25 34 75 100 98 66 16 20 73 61 88 81 78 75 38 54 77 83 71 85 91 74 91 97 96 96 97 96 95 96 70 58 83 97 92 80 85 88 89 94 96 95 93 74 43 27 38 43
6 18 32 90 100 100 87 66 23 70 97 88 97 88 74 48 33 56 62 59 67 63 64 93 91 96 98 96 95 92 96 97 96 95 96 96 95 98 100 92 96 97 96 93 51 30 41 43 42
6 18 24 84 100 32 45 44 34 97 94 80 76 85 71 60 39 47 45 57 45 40 42 49 66 90 89 97 94 95 84 89 77 73 96 96 94 89 92 96 95 97 97 85 60 69 70 54 40
6 13 18 20 33 27 31 14 32 83 91 57 57 49 50 50 37 45 49 43 40 43 38 41 46 60 84 87 78 74 68 63 62 66 96 94 86 97 97 97 97 97 96 96 96 82 58 58 33
9 20 19 24 39 45 29 32 38 68 93 72 70 56 49 38 41 46 51 50 48 51 40 32 30 40 47 58 57 54 58 51 70 65 96 92 97 96 97 99 98 98 98 86 73 53 54 34 18
5 11 24 51 52 56 69 97 95 92 79 90 51 56 56 44 40 37 48 54 55 50 42 32 30 31 35 33 42 54 54 93 97 71 88 91 98 93 97 99 97 98 84 65 50 36 22 17 15
5 17 43 76 83 88 61 84 98 75 79 68 56 79 68 53 32 63 56 43 56 50 45 36 37 36 33 52 75 50 90 93 97 84 95 97 88 94 98 97 97 84 54 35 21 17 18 16 13
5 17 45 60 70 75 78 73 97 86 60 47 62 68 87 76 63 84 91 66 71 49 48 41 38 34 36 40 48 67 99 91 97 96 97 96 92 97 99 89 75 59 43 26 19 17 16 14 13
7 29 49 63 76 98 74 69 82 83 64 42 64 63 42 70 96 98 91 58 54 56 58 64 47 41 41 60 69 80 96 93 97 95 94 86 97 96 89 81 82 47 32 21 18 17 15 15 13
17 21 71 100 93 89 75 61 71 96 72 30 54 57 63 60 51 43 41 40 31 24 30 41 53 71 92 96 96 92 88 95 96 93 82 85 84 92 66 72 87 25 18 18 16 15 16 16 12
6 23 79 98 96 66 94 65 48 92 62 38 24 52 19 23 59 60 30 26 24 33 28 43 69 54 35 45 37 47 63 72 68 79 92 96 70 80 80 81 75 30 19 16 16 17 16 17 15
6 13 72 100 89 72 81 59 54 75 75 67 46 26 44 15 14 13 16 16 17 26 29 25 28 47 54 35 38 35 38 53 70 90 96 97 86 94 98 94 60 38 54 29 18 16 22 33 59
7 7 53 81 96 83 82 73 80 76 68 69 58 19 29 32 14 12 10 9 13 23 29 22 13 12 13 16 24 28 42 43 35 28 30 47 85 98 93 88 24 42 90 58 66 71 72 76 71
8 10 15 70 69 62 86 59 93 67 67 63 77 37 28 36 27 24 12 12 16 13 11 10 10 10 11 11 10 17 20 32 39 57 56 35 60 77 77 92 73 54 77 89 72 63 70 98 74
12 11 22 30 50 47 70 61 85 92 74 53 92 65 34 38 29 29 29 21 12 10 10 10 10 11 12 8 9 36 37 40 36 57 66 73 77 61 77 74 86 88 87 66 74 75 76 79 77
16 13 50 65 79 52 33 87 95 90 96 92 77 69 31 23 33 33 33 35 43 26 11 10 13 16 19 22 19 27 41 57 86 85 71 84 83 88 83 98 97 97 81 90 80 76 76 87 80
17 14 31 52 50 22 40 64 53 99 100 88 61 38 23 23 23 23 28 31 34 47 42 47 40 34 33 30 26 30 50 72 87 70 66 61 77 92 99 98 98 97 97 94 86 90 86 93 99
21 23 34 40 45 33 70 73 98 93 100 71 56 52 25 28 26 25 22 28 26 29 46 43 40 29 20 19 18 18 17 54 54 37 40 25 28 88 92 95 95 98 99 92 82 54 58 58 35
27 24 52 46 36 48 76 93 98 73 97 87 84 58 54 43 30 29 24 24 34 37 69 70 59 43 47 33 20 16 17 24 20 16 41 19 19 28 53 87 78 88 85 46 32 26 40 26 23
37 42 64 47 35 52 88 90 95 99 92 80 85 68 64 44 37 29 28 27 66 71 66 48 86 64 42 60 69 56 34 32 36 18 42 30 21 21 41 64 67 68 66 44 40 40 21 25 28
45 32 42 95 61 94 84 94 96 99 72 100 84 54 47 30 32 30 29 39 60 57 89 62 69 92 98 97 95 100 87 36 66 25 51 43 32 33 64 63 83 83 49 35 34 27 26 30 35
99 44 34 37 57 63 51 36 96 74 85 87 100 67 52 32 26 19 20 16 30 26 28 38 28 34 54 80 88 75 79 92 99 94 95 71 51 57 65 67 69 42 35 27 25 25 25 24 35

GFSSGP_500_rhum_048.txt.gz
RH
25 18 7 2 3 4 24 49 75 85 76 66 75 82 77 90 88 96 69 70 80 78 72 85 91 96 97 91 97 72 84 66 53 61 60 60 55 59 60 60 61 60 61 54 57 58 57 51 51
26 12 3 3 4 8 45 50 71 66 75 72 68 66 71 68 96 79 94 89 69 71 83 80 86 96 96 88 96 82 80 65 58 58 56 62 68 72 64 49 52 70 72 69 66 62 59 57 55
22 7 3 4 8 11 42 41 57 51 73 64 64 66 62 68 72 76 72 70 85 78 82 62 56 87 96 100 98 83 75 74 75 67 70 71 73 68 52 43 39 69 85 71 66 62 58 65 59
12 3 5 8 18 23 33 26 44 82 83 63 52 70 71 64 70 63 60 63 61 63 71 83 80 88 93 96 79 76 88 84 81 70 76 79 79 64 58 39 34 48 60 54 57 66 69 72 70
7 4 5 9 24 46 52 78 91 85 76 73 65 44 63 64 54 54 55 58 61 52 61 69 96 96 93 92 96 77 76 100 90 78 83 82 81 59 72 64 53 55 58 56 56 79 78 79 74
4 5 7 12 17 35 86 97 96 69 65 72 50 50 32 43 38 40 73 96 96 97 88 86 96 96 95 96 97 88 79 94 90 86 85 79 71 60 57 66 74 72 65 71 71 77 79 75 42
5 7 9 11 17 66 82 67 70 63 64 71 53 77 55 56 75 74 94 98 74 75 90 91 94 96 97 96 96 95 91 82 83 93 94 78 72 62 51 47 68 81 85 84 90 88 74 58 26
5 7 10 10 22 75 92 66 44 43 49 58 76 77 56 48 69 95 91 96 88 90 100 90 87 92 97 95 96 97 93 97 91 93 88 78 70 77 67 64 53 85 96 96 95 92 68 54 32
6 8 10 13 30 45 88 48 30 16 20 46 93 82 68 86 70 66 62 70 67 94 98 96 97 95 96 96 97 96 96 96 84 95 70 69 65 77 71 73 74 85 94 98 95 86 62 41 37
8 8 8 14 16 40 40 21 21 19 62 93 86 60 53 72 78 57 40 63 68 64 99 97 95 88 95 96 96 97 97 94 93 98 94 92 95 95 81 92 87 96 94 96 96 95 82 42 39
7 8 8 13 19 23 28 14 18 26 46 76 51 37 31 36 51 64 49 52 44 62 57 67 92 93 92 95 97 96 91 80 96 96 96 98 91 96 97 95 91 84 94 97 96 92 74 49 38
6 9 8 16 27 28 38 59 58 57 79 61 57 51 52 31 29 33 44 39 45 48 39 38 41 69 89 96 94 95 96 92 84 95 84 85 87 95 96 96 94 92 94 97 96 90 88 93 83
6 5 11 30 49 55 71 80 82 84 69 72 52 40 42 43 26 25 43 41 43 44 35 36 31 52 67 95 74 50 58 77 75 87 86 82 79 92 98 98 90 92 96 95 97 98 94 79 51
6 6 22 42 49 73 44 73 97 77 59 58 53 61 56 49 35 30 32 40 37 34 45 44 46 36 42 61 48 36 45 57 58 85 98 84 80 76 95 92 82 100 97 96 96 93 74 67 33
7 6 26 40 60 58 58 58 86 94 64 45 68 62 66 50 42 43 40 43 42 33 32 45 44 42 43 35 28 30 46 59 87 97 92 91 87 74 88 80 95 96 98 96 82 62 50 31 19
9 8 42 47 54 65 77 61 69 87 64 36 70 55 83 81 61 79 86 71 58 40 32 30 32 30 27 32 36 60 85 64 94 91 98 84 82 89 82 83 98 97 89 76 47 29 21 20 17
12 10 16 42 45 78 79 56 46 72 42 30 49 65 65 81 88 92 75 64 54 54 57 48 38 35 36 34 41 83 59 70 84 79 84 87 95 87 75 90 90 83 71 48 29 20 19 18 17
16 14 22 30 45 98 80 60 56 49 55 71 36 31 66 61 43 37 36 30 28 34 56 52 42 42 59 47 46 55 56 79 79 84 90 89 88 81 97 80 75 64 49 42 28 20 18 18 16
20 8 15 20 59 94 67 66 52 53 70 83 46 45 15 23 40 35 22 25 32 31 51 48 65 82 79 80 81 82 68 70 83 88 90 92 80 86 79 80 86 82 48 22 20 19 20 18 16
28 8 16 22 55 91 98 76 59 43 58 84 53 26 35 14 13 16 16 14 21 29 24 37 50 46 44 39 41 56 77 71 76 88 89 72 65 80 93 90 78 84 65 20 18 17 19 21 50
30 9 9 28 50 60 54 60 77 44 60 86 52 21 26 29 14 13 14 15 26 27 20 12 16 18 20 25 29 29 32 41 57 68 79 89 85 90 95 94 95 84 66 49 72 66 62 63 56
51 13 9 13 28 34 61 45 58 60 49 55 74 65 31 26 29 31 16 14 17 14 11 11 9 8 9 9 16 18 26 30 33 34 38 30 35 64 90 95 99 65 73 85 91 81 85 64 71
36 16 10 12 14 18 28 54 45 59 59 64 80 81 51 35 36 29 30 25 13 11 11 11 12 10 10 8 14 34 33 41 36 56 73 81 79 60 52 76 68 74 88 98 85 88 78 92 79
28 17 15 16 15 16 34 40 36 65 71 70 60 70 55 35 41 34 31 27 34 41 44 19 15 21 18 18 17 18 28 47 63 68 65 60 78 91 80 84 79 96 97 95 98 97 100 98 82
43 20 25 21 14 15 37 20 24 57 46 57 78 52 35 27 34 39 31 31 28 33 47 53 44 39 36 34 32 28 41 45 58 61 61 55 51 84 92 93 100 98 99 99 99 100 99 89 81
68 41 16 13 18 26 18 17 40 47 47 51 49 63 37 31 32 30 32 33 32 29 26 41 49 47 40 36 29 27 23 21 32 48 47 36 40 44 75 98 97 99 98 97 100 100 93 80 45
76 52 25 32 16 18 28 27 52 59 72 68 43 45 57 46 34 29 32 31 43 71 38 28 37 48 42 39 35 25 19 23 31 34 38 58 22 42 52 29 46 62 70 75 69 69 43 34 39
74 64 41 44 23 17 18 42 66 69 60 53 48 64 49 52 43 32 28 30 46 54 97 81 78 75 69 55 47 45 34 33 42 68 36 29 57 37 30 26 36 56 58 70 78 69 43 29 24
77 57 37 48 45 27 18 48 82 87 89 83 92 69 87 78 50 30 25 23 20 27 60 72 97 96 92 76 92 93 91 87 86 93 89 72 91 67 80 68 58 59 59 67 73 39 31 17 17
83 73 45 39 39 31 29 24 78 72 84 62 56 83 79 57 47 33 26 21 18 20 22 32 50 69 70 69 76 93 93 96 85 77 97 96 96 93 97 82 74 75 70 55 31 23 22 13 14

GFSSGP_500_rhum_054.txt.gz
RH
24 27 27 24 12 7 4 4 4 3 6 11 39 49 57 65 58 48 75 95 94 97 87 98 92 78 74 78 81 69 62 85 96 87 66 72 66 59 62 60 54 55 60 58 56 56 61 60 58
32 32 30 19 8 4 4 4 4 4 9 17 31 57 63 62 77 78 72 69 86 93 93 93 82 82 70 59 58 62 60 80 97 96 77 63 57 56 59 51 63 65 61 54 56 59 68 69 67
38 39 31 16 8 4 5 5 6 8 20 19 25 33 48 51 56 49 55 68 78 87 88 76 84 84 65 52 62 55 55 60 93 97 78 62 55 57 53 66 71 65 57 50 50 56 63 70 71
40 40 28 13 8 4 6 7 7 11 20 29 27 31 29 31 34 40 38 53 63 60 69 64 60 76 58 54 56 58 50 83 96 96 87 66 54 52 62 78 74 65 60 59 49 46 48 54 55
44 40 27 13 5 5 7 10 14 21 28 38 41 42 50 48 54 48 32 55 45 60 75 64 56 55 49 47 56 57 54 74 95 98 95 74 59 58 62 86 77 68 62 56 39 40 47 49 60
49 41 25 12 4 6 7 11 16 20 16 23 26 27 32 40 52 61 51 38 45 67 86 96 76 58 53 50 54 47 49 62 71 96 91 62 66 60 81 85 87 81 73 64 70 71 60 64 67
44 42 25 8 4 6 9 13 17 14 12 12 17 48 56 54 63 63 57 59 46 51 80 87 97 99 78 78 72 80 76 80 96 85 88 86 67 62 88 76 86 70 72 90 87 78 72 85 78
44 40 20 7 4 6 11 17 15 10 14 22 27 56 74 70 67 73 76 76 91 98 96 97 95 96 94 93 98 91 88 95 96 96 95 71 76 68 77 87 80 80 91 74 77 74 88 97 96
45 38 16 6 4 7 15 21 18 10 17 33 70 57 52 49 37 41 72 75 93 95 95 96 96 97 97 96 96 97 97 99 92 96 83 95 74 81 89 92 90 98 88 80 91 91 89 95 96
45 38 15 5 4 10 26 40 46 30 37 71 57 57 55 49 48 43 42 64 74 91 96 96 97 96 96 93 92 97 97 97 96 99 84 92 90 92 85 90 96 98 95 97 97 95 98 100 100
45 40 15 6 6 17 32 55 56 57 64 74 76 63 50 40 40 41 40 37 57 79 95 96 97 93 97 90 88 95 96 97 96 95 96 91 88 87 94 92 89 93 98 98 98 94 91 92 93
48 41 18 9 6 22 32 48 46 52 47 42 39 52 52 44 42 40 42 35 39 57 62 79 87 72 89 94 94 84 99 96 96 94 94 96 98 99 97 84 96 93 100 100 98 98 97 96 96
46 41 29 12 6 20 39 32 40 54 45 34 56 57 59 64 50 36 35 35 30 44 49 51 65 72 71 91 88 96 97 96 97 96 96 96 96 96 76 92 98 95 94 99 96 90 86 88 95
44 44 38 18 8 23 32 34 34 45 32 33 52 63 74 93 54 34 30 35 31 39 47 50 72 74 84 92 96 96 96 95 96 97 96 97 95 92 98 95 97 100 90 93 94 84 81 91 95
52 49 43 29 11 13 21 46 46 45 33 32 40 64 71 98 78 53 37 33 31 39 45 72 57 64 56 79 96 85 93 95 97 96 97 96 89 88 94 95 97 98 93 94 88 81 88 95 95
62 58 46 31 20 11 14 43 47 44 43 28 35 41 54 95 86 88 72 55 44 42 47 40 83 77 42 53 94 95 94 84 92 94 94 86 88 94 97 99 94 88 84 93 91 91 100 100 100
68 74 52 37 28 11 11 31 52 38 41 34 25 34 54 44 43 46 41 51 62 62 57 46 39 43 41 45 64 87 66 57 82 75 82 85 94 98 100 96 96 92 99 98 92 99 100 100 100
89 76 59 42 33 15 12 31 65 49 36 40 33 33 27 45 36 31 31 31 35 44 43 45 45 42 92 49 36 68 99 97 57 62 77 89 91 98 98 96 97 100 100 91 88 92 98 95 79
86 74 59 37 34 24 16 28 49 53 35 42 43 22 20 15 41 34 42 33 26 28 45 42 47 52 100 90 87 60 97 54 58 73 86 78 95 92 98 97 99 99 98 100 86 88 78 56 46
79 72 69 38 36 36 18 19 34 46 33 41 48 36 24 17 12 20 16 12 16 25 29 50 49 75 98 83 99 79 62 56 95 97 98 97 94 96 98 99 98 99 100 100 80 48 44 27 23
76 74 80 51 43 48 23 12 33 32 45 43 57 36 17 21 20 11 11 9 13 22 19 34 62 82 82 90 90 85 84 78 78 99 97 100 98 98 100 100 99 93 92 80 69 47 37 32 26
73 93 84 60 58 55 42 17 30 24 35 44 56 46 26 19 20 22 13 14 15 21 11 13 22 32 32 39 56 66 62 64 74 97 99 93 94 97 91 85 92 84 80 85 93 77 50 24 21
90 97 76 59 63 58 48 23 16 16 25 44 44 60 61 25 22 24 28 18 11 10 10 10 8 9 13 26 24 35 52 68 80 81 72 75 65 62 71 85 85 86 80 82 94 85 85 68 66
96 90 78 69 66 51 55 38 17 20 28 42 40 59 58 37 28 28 28 27 25 24 17 11 10 10 10 14 15 20 33 38 46 47 46 52 46 60 72 71 94 100 94 91 100 97 91 91 89
72 83 87 76 67 54 56 42 24 23 30 36 46 56 46 24 21 26 26 28 27 27 30 35 34 30 29 23 22 25 33 33 36 50 57 63 63 61 59 57 63 80 98 88 95 82 83 94 98
83 87 96 91 84 68 64 51 37 20 22 26 46 51 48 43 26 24 26 30 29 29 34 38 36 41 39 36 31 28 31 37 56 68 71 64 64 55 49 65 78 76 66 64 80 92 97 97 98
89 84 85 87 80 70 63 57 46 17 17 30 27 35 46 49 52 27 27 29 30 29 35 66 49 35 38 39 35 35 26 25 26 30 23 67 52 42 38 42 65 82 85 92 98 99 97 98 98
100 99 93 83 72 68 67 57 58 27 18 33 38 40 55 50 44 38 38 29 23 24 30 54 90 64 44 47 55 52 49 52 58 37 27 23 36 62 56 41 32 53 73 98 95 98 99 99 84
100 94 84 76 72 64 59 50 50 35 24 24 54 59 59 59 63 63 51 30 27 26 21 35 69 81 91 98 99 88 100 97 84 96 97 65 59 62 82 87 76 72 79 81 69 88 94 76 64
86 89 89 89 77 72 64 49 59 51 41 42 36 55 55 53 74 69 61 55 40 38 24 21 23 47 64 64 88 98 100 100 100 80 93 89 79 85 99 98 97 98 97 98 100 99 97 96 96

GFSSGP_500_rhum_060.txt.gz
RH
16 27 26 24 25 26 24 13 4 4 5 5 5 6 9 9 10 20 19 19 22 28 19 11 18 45 74 77 98 96 98 96 90 79 100 99 92 90 72 53 49 44 43 50 51 50 51 59 63
21 30 32 32 26 30 25 9 4 5 6 6 6 7 13 15 11 13 18 24 32 48 36 27 22 31 51 90 91 93 95 93 82 79 94 100 84 86 73 55 49 46 49 50 52 56 56 62 65
25 32 35 28 29 31 22 7 4 6 7 8 8 8 10 17 14 13 21 30 37 40 56 52 52 50 59 69 74 87 95 93 71 78 90 98 96 86 76 56 48 42 49 52 50 53 54 52 56
26 33 35 32 36 29 15 5 4 7 7 9 10 9 8 13 15 22 20 21 31 38 44 61 72 70 82 86 85 96 91 93 71 62 79 92 96 91 77 54 48 64 66 55 57 57 58 58 51
27 33 37 37 36 28 10 4 4 6 8 10 11 9 7 9 15 23 30 33 34 48 54 84 73 77 87 65 71 70 67 67 72 63 52 79 96 93 79 60 59 86 62 63 61 58 64 60 52
28 32 37 42 32 24 7 4 5 6 9 11 11 7 8 8 27 45 60 50 46 52 94 86 92 86 72 78 67 55 50 50 50 56 48 97 97 94 85 69 78 72 66 61 62 68 60 59 65
27 32 39 40 36 21 6 4 5 8 11 14 12 9 12 21 38 59 60 44 58 60 67 90 92 96 76 88 93 93 84 44 46 48 49 64 96 96 82 68 69 67 70 66 72 63 71 77 71
28 35 43 33 38 18 6 4 5 11 15 30 24 12 16 41 45 37 41 46 45 47 89 95 98 94 94 98 94 94 84 68 41 53 50 51 97 97 72 82 81 70 75 69 63 66 76 68 60
31 40 45 32 39 17 6 4 7 19 33 42 36 18 38 36 36 35 34 40 42 45 60 91 95 96 95 96 95 96 97 69 60 62 90 72 88 96 78 93 89 75 74 58 54 64 69 67 69
36 48 47 34 40 21 8 5 9 28 46 48 45 44 39 32 27 23 24 27 36 32 49 95 96 96 98 92 96 97 97 97 95 77 97 76 88 89 92 92 91 81 69 58 62 66 66 67 78
45 59 49 42 42 28 10 7 8 33 44 50 43 36 26 23 34 39 39 37 39 32 36 88 97 94 92 91 95 97 97 96 95 94 97 99 94 98 96 83 84 78 71 56 56 62 72 80 86
55 64 56 45 43 38 15 8 8 23 23 41 42 32 25 25 40 42 36 26 28 31 36 95 95 95 98 96 96 92 96 95 97 96 97 96 96 97 96 80 88 84 69 54 64 73 76 82 100
54 68 59 52 43 41 26 10 10 17 13 28 39 33 25 29 37 46 38 24 30 29 36 63 72 91 87 85 96 94 97 95 97 97 97 96 96 96 96 89 92 79 62 57 80 77 74 91 88
53 68 61 60 50 42 38 17 11 12 16 34 35 25 24 26 32 46 43 30 31 27 55 47 46 50 64 73 77 94 96 97 97 97 96 97 95 96 97 93 91 74 60 60 78 83 93 94 85
52 68 72 58 60 43 44 24 15 12 23 28 40 32 25 24 33 49 57 33 34 29 33 40 38 34 73 96 95 93 98 96 97 97 97 95 94 96 97 97 95 77 63 80 82 87 82 93 78
53 66 75 76 67 48 48 31 18 16 22 30 35 32 27 23 25 38 46 57 40 36 38 42 46 60 59 96 99 92 89 98 97 96 97 96 96 96 97 96 96 88 81 87 90 95 93 86 79
56 66 78 84 80 50 52 35 23 16 18 28 43 39 34 25 20 30 33 34 34 36 45 49 47 59 55 92 100 95 93 96 98 97 96 97 97 96 96 95 96 95 97 97 100 85 84 81 90
65 80 84 84 60 66 51 41 31 18 20 24 40 43 44 30 23 18 27 25 26 22 20 28 38 42 46 68 55 99 92 91 98 98 97 97 98 97 97 97 96 96 97 98 98 92 94 94 88
88 76 80 85 73 65 55 49 37 31 26 30 37 38 38 31 31 18 15 19 20 11 9 18 24 45 46 41 41 50 96 97 98 98 98 98 97 100 98 97 96 96 96 94 93 94 94 89 93
86 74 78 89 82 67 67 47 43 44 24 27 38 43 38 35 31 17 19 15 14 12 9 15 44 43 51 33 47 45 85 97 97 97 99 98 98 96 98 97 97 96 86 88 91 90 90 92 94
88 84 96 100 78 71 64 44 50 50 36 29 44 37 38 41 32 17 18 18 16 14 9 12 44 44 48 39 38 76 48 86 96 96 95 94 95 96 96 96 97 94 90 90 84 84 88 93 94
80 99 100 96 86 78 59 51 46 59 48 24 40 32 35 41 30 19 17 16 16 12 10 8 13 49 59 51 59 70 87 78 95 97 97 94 95 91 97 97 96 92 86 86 79 80 84 89 96
90 94 100 98 76 69 69 56 52 53 49 25 30 30 27 34 38 20 16 15 15 15 17 11 7 8 26 50 80 85 94 97 90 88 81 83 88 95 91 96 97 96 97 99 92 91 84 87 90
96 100 100 87 91 63 73 68 47 60 52 26 22 19 17 30 49 42 17 16 16 16 16 15 14 7 6 8 14 24 39 52 69 86 98 98 94 96 88 97 97 95 100 98 96 89 93 88 80
90 94 99 86 80 64 66 66 52 66 57 28 23 20 20 28 41 57 22 19 20 21 21 19 18 20 20 8 6 9 14 19 35 80 97 98 91 100 96 87 95 97 100 97 92 98 99 94 78
97 90 96 88 86 76 72 66 57 77 64 41 23 25 25 30 40 43 21 20 23 23 23 19 19 23 33 27 22 10 12 18 23 26 71 86 84 80 76 72 63 63 64 75 79 85 90 88 86
98 83 98 96 94 84 84 68 59 74 75 65 28 26 30 30 47 46 40 32 42 28 25 22 21 20 35 41 25 26 23 18 17 23 32 39 45 46 54 47 52 51 53 58 63 75 78 86 85
89 93 98 97 94 97 85 77 67 71 84 72 50 22 26 29 46 57 54 44 44 34 40 26 23 26 37 55 53 27 27 27 28 23 20 19 19 19 25 33 46 46 34 37 36 35 56 68 79
100 94 93 97 99 100 100 98 67 78 84 77 55 28 31 38 59 59 59 48 38 56 56 34 29 28 25 28 32 57 48 55 61 66 50 52 50 46 30 16 18 26 38 51 52 47 47 38 57
96 95 96 100 100 100 100 100 79 76 82 76 54 33 52 53 49 50 59 59 46 59 52 44 37 40 29 30 21 31 43 51 49 71 70 72 60 70 78 70 59 55 54 55 76 82 92 91 86